Location: Aytr�
(46.1357°N, 1.1145°W)
Time: 21:38:52
(UTC+00:00)

Daily predictions for brighter satellites

Satellite Brightness Start Highest point End
(mag) Time Altitude Azimuth Time Altitude Azimuth Time Altitude Azimuth
CSL-04 DEB 4.3 18:15:22 10° NNE 18:19:19 70° ESE 18:23:19 10° S
USA 307 4.1 18:16:30 10° W 18:20:28 35° NNW 18:24:25 10° NE
FALCON 9 DEB 4.0 18:19:30 10° NW 18:22:43 36° NNE 18:25:54 10° E
ATLAS CENTAUR R/B 2.5 18:20:31 10° SSE 18:23:08 19° ESE 18:25:46 10° ENE
USA 306 4.2 18:20:00 10° W 18:23:55 34° NNW 18:27:49 10° NE
Cosmos 44 Rocket 3.5 18:21:44 10° NNW 18:26:58 66° NE 18:32:08 10° SE
Okean-O 2.8 18:24:00 10° SSE 18:28:18 53° ENE 18:32:38 10° N
ERS-2 2.9 18:25:14 10° NE 18:28:32 31° E 18:31:48 10° SSE
Cosmos 2084 Rocket 3.8 18:25:05 10° NNW 18:29:19 51° NE 18:33:41 10° ESE
Cosmos 1844 Rocket 3.3 18:24:13 10° NNW 18:29:20 35° NE 18:34:24 10° ESE
CSL-04 Rocket 4.2 18:24:41 10° SE 18:29:48 40° ENE 18:34:54 10° N
USA 308 4.2 18:27:13 10° WNW 18:31:07 33° NNW 18:35:01 10° NE
Cosmos 1666 4.4 18:31:51 10° ESE 18:33:39 13° E 18:35:27 10° NE
Cosmos 1271 Rocket 3.0 18:30:25 10° NNW 18:34:08 69° W 18:37:52 10° S
Cosmos 1503 Rocket 4.3 18:31:08 10° N 18:36:06 44° ENE 18:41:02 10° SE
HJ-1C 3.9 18:33:07 10° SE 18:36:13 38° ENE 18:39:20 10° N
H-2A R/B 3.8 18:33:41 10° N 18:37:23 34° WNW 18:41:05 10° SW
SKYMED 2 4.2 18:34:17 10° N 18:38:36 63° WNW 18:42:53 10° SSW
MOS 1 Rocket 4.3 18:34:42 10° N 18:39:39 59° WNW 18:44:50 10° SSW
PSLV R/B 4.0 18:35:40 10° NNE 18:39:42 55° E 18:43:41 10° S
Cosmos 1844 4.4 18:35:48 10° NNW 18:41:08 37° NE 18:46:24 10° ESE
Cosmos 1470 Rocket 3.8 18:37:05 10° SSE 18:41:23 48° E 18:45:40 10° NNE
Cosmos 2360 Rocket 2.6 18:38:26 10° S 18:43:38 40° ESE 18:48:52 10° NE
CZ-4B R/B 2.3 18:40:42 10° N 18:43:39 48° WNW 18:46:38 10° SSW
Cosmos 1602 3.7 18:41:08 10° S 18:45:00 81° E 18:48:57 10° N
Ariane Rocket 4.4 18:42:03 11° ESE 18:45:28 20° ENE 18:49:03 10° NNE
Cosmos 2278 Rocket 4.1 18:43:11 10° N 18:45:53 13° NE 18:48:34 10° ENE
Meteor 1-19 Rocket 4.3 18:43:16 10° N 18:49:15 77° ENE 18:55:01 10° SSE
Cosmos 1500 3.4 18:48:34 10° SSE 18:52:06 43° E 18:55:39 10° NNE
Meteor 2-4 Rocket 4.0 18:48:05 10° N 18:53:47 51° ENE 18:59:31 10° SSE
Cosmos 2333 Rocket 3.3 18:49:50 10° SSE 18:54:00 21° E 18:58:12 10° NE
Cosmos 1703 Rocket 4.2 18:49:58 10° N 18:54:01 34° ENE 18:57:58 10° SE
DMSP B5D1-3 4.5 18:49:41 10° NNE 18:54:50 67° ESE 18:59:57 10° S
SL-08 RB Rocket 3.8 18:52:28 10° SSE 18:56:52 55° ENE 19:01:21 10° N
Cosmos 1689 Rocket 1.8 18:54:11 10° NNE 18:57:04 75° ESE 18:59:56 10° S
Meteor 2-12 Rocket 4.4 18:51:32 10° S 18:57:31 66° E 19:03:34 10° NNE
ERBS 4.0 18:56:05 10° W 18:59:03 29° NNW 19:02:00 10° NE
Cosmos 1980 Rocket 4.3 18:55:13 10° WSW 18:59:58 27° NW 19:04:46 10° N
Cosmos 1933 Rocket 3.6 18:58:04 10° S 19:02:17 52° E 19:06:33 10° NNE
BREEZE-M DEB (TANK) 4.5 19:02:22 10° S 19:03:36 15° SE 19:03:36 15° SE
Aureole 2 Rocket 1.5 19:02:09 10° NNW 19:04:42 87° WSW 19:06:52 13° SSE
Cosmos 1862 Rocket 4.0 19:01:42 10° NNW 19:06:10 66° W 19:10:35 10° S
Resurs 01 Rocket 3.5 19:12:41 13° NE 19:12:41 13° NE 19:14:20 10° NNE
Cosmos 2242 Rocket 3.6 19:07:41 10° N 19:12:10 58° ENE 19:16:33 10° SSE
Cosmos 2322 Rocket 2.4 19:07:54 10° SSW 19:13:30 73° WNW 19:19:09 10° NNE
Abrixas rocket 2.1 19:13:12 10° W 19:15:37 46° N 19:16:07 38° NE
Lacrosse 4 Rocket 3.0 19:12:21 10° SSE 19:14:29 19° SE 19:14:29 19° SE
Helios 1A Rocket 3.1 19:15:14 10° S 19:19:16 71° WSW 19:23:19 10° NNW
YAOGAN 1 3.9 19:15:59 10° S 19:20:06 42° W 19:24:14 10° NNW
Nadezhda 3 Rocket 4.4 19:14:44 10° NNW 19:21:04 69° W 19:27:23 10° S
COSMOS 2428 3.5 19:19:15 10° SSE 19:23:56 27° ESE 19:24:51 26° E
SJ-6B 3.2 19:22:30 28° ESE 19:24:08 42° ENE 19:27:59 10° N
Cosmos 2154 Rocket 4.5 19:21:09 10° SSW 19:27:17 63° W 19:33:28 10° N
ASTEX 1 3.9 19:23:16 10° NNE 19:27:47 36° E 19:30:11 23° SE
GP-B 3.0 19:23:38 10° S 19:28:04 89° E 19:32:32 10° N
Meteor 1-14 Rocket 4.3 19:22:57 10° SSW 19:28:32 79° WNW 19:34:05 10° N
Cosmos 2219 Rocket 2.6 19:25:46 10° S 19:30:48 36° ESE 19:35:53 10° NE
Meteor 1-11 Rocket 4.0 19:26:00 10° SSE 19:31:20 43° E 19:36:38 10° NNE
MetOp-A 4.0 19:27:48 10° SSE 19:33:07 71° ENE 19:38:29 10° N
OBJECT-B 1.9 19:36:25 31° NNE 19:36:25 31° NNE 19:38:30 10° N
ARGOS 4.1 19:32:12 10° S 19:37:26 49° W 19:42:42 10° NNW
SL-16 R/B 3.5 19:33:02 10° SW 19:38:20 40° NW 19:43:41 10° NNE
Resurs 1-3 4.2 19:38:47 36° ENE 19:38:47 36° ENE 19:42:42 10° N
SJ 16-02 2.8 19:36:47 10° N 19:39:35 22° NE 19:39:35 22° NE
Okean 1-7 3.0 19:36:56 10° N 19:41:19 84° W 19:45:39 10° S
SeaSat 1 2.7 19:36:34 10° NNE 19:41:30 71° WNW 19:46:24 10° SW
Cosmos 1066 Rocket 4.4 19:37:56 10° N 19:43:30 50° ENE 19:45:41 34° SE
CZ-4 R/B 4.2 19:40:56 10° SW 19:43:41 18° W 19:46:27 10° NW
Meteor 1-13 Rocket 4.2 19:38:00 10° N 19:43:58 70° ENE 19:48:31 17° SSE
USA 234 3.2 19:39:53 19° ENE 19:44:45 68° SE 19:51:15 10° SW
H-2A R/B 4.2 19:43:31 10° SSW 19:48:09 28° W 19:52:50 10° NW
CZ-2C R/B 3.2 19:43:43 10° N 19:49:08 61° WNW 19:54:24 10° SSW
USA 305 4.3 19:46:12 10° WNW 19:49:56 28° N 19:50:56 26° NNE
IRS-1A Rocket 4.2 19:46:43 26° SSE 19:50:01 68° ENE 19:55:32 10° N
BREEZE-M DEB (TANK) 2.7 19:47:45 10° WNW 19:50:20 54° NNE 19:51:09 44° NE
Cosmos 2322 3.6 19:45:01 10° SSW 19:50:41 66° ESE 19:56:22 10° NNE
SL-4 R/B 2.1 19:51:09 10° WNW 19:54:13 51° N 19:54:13 51° N
DMSP B5D2-2 4.1 19:49:44 10° NNE 19:54:59 80° WNW 20:00:11 10° SSW
USA 186 3.9 19:56:42 16° NNW 19:56:42 16° NNW 19:57:23 10° NNW
Cosmos 1869 Rocket 3.4 19:52:12 10° S 19:56:33 83° E 20:00:58 10° N
SL-8 Rocket 3.9 19:52:44 10° S 19:58:59 86° W 20:05:14 10° N
Gbstr 26 Del rocket 4.1 19:54:54 10° WNW 19:59:27 45° N 20:00:59 36° NE
FALCON 9 DEB 3.8 19:56:25 10° WNW 19:59:26 50° WSW 19:59:26 50° WSW
USA 307 4.2 19:57:33 10° NW 20:01:19 29° N 20:01:49 28° NNE
ATLAS CENTAUR R/B 2.3 19:58:18 10° WSW 20:01:43 39° NW 20:03:10 27° N
USA 306 4.2 20:00:57 10° NW 20:04:44 29° N 20:05:03 29° NNE
Cosmos 1378 4.5 20:01:51 10° N 20:03:53 30° N 20:03:53 30° N
Cosmos 1666 3.7 20:05:12 10° SSW 20:08:46 45° WNW 20:12:23 10° N
USA 308 4.2 20:08:11 10° NW 20:11:59 30° N 20:12:00 30° N
Cosmos 1844 Rocket 3.8 20:08:06 10° NW 20:13:17 41° WSW 20:17:54 13° S
Cosmos 2366 rocket 4.0 20:07:43 10° S 20:14:02 83° W 20:20:26 10° N
SL-08 R/B 4.5 20:11:58 31° SSE 20:15:05 64° E 20:21:30 10° NNE
Cosmos 1777 Rocket 4.2 20:11:31 10° NNW 20:16:44 68° WSW 20:18:17 44° S
SPOT 3 Rocket 3.8 20:18:37 54° NE 20:18:37 54° NE 20:23:07 10° N
Okean 3 3.7 20:15:18 10° NNW 20:19:31 65° W 20:19:31 65° W
Cosmos 2333 4.4 20:15:45 10° SW 20:21:22 68° WNW 20:27:05 10° NNE
Ariane Rocket 3.3 20:22:15 41° SSW 20:23:56 65° WSW 20:29:01 10° NNW
Cosmos 2360 Rocket 3.6 20:22:28 10° WSW 20:27:40 37° NW 20:32:54 10° NNE
Cosmos 2278 Rocket 2.5 20:25:41 10° NNW 20:30:28 52° NNE 20:30:28 52° NNE
Cosmos 1727 Rocket 4.0 20:29:53 10° N 20:36:05 77° W 20:37:44 51° SSW
Meteor 2-20 4.4 20:31:15 10° N 20:37:24 83° W 20:38:13 68° S
Cosmos 2333 Rocket 2.5 20:32:06 10° SW 20:37:44 64° WNW 20:43:27 10° NNE
Cosmos 1821 Rocket 4.5 20:41:55 47° NNE 20:41:55 47° NNE 20:46:16 10° NNE
Resurs 01 Rocket 3.3 20:50:14 29° NNW 20:50:14 29° NNW 20:52:27 10° NNW
Cosmos 1943 Rocket 4.2 20:46:09 10° N 20:48:24 17° NNE 20:48:24 17° NNE
Lacrosse 4 Rocket 3.8 20:49:47 10° SW 20:50:57 18° WSW 20:50:57 18° WSW
COSMOS 2428 3.5 21:02:22 10° SW 21:14:01 - NNE 21:07:14 49° W
Cosmos 2219 Rocket 3.4 21:09:29 10° WSW 21:14:42 39° NW 21:19:58 10° NNE
SJ 16-02 3.8 21:14:58 10° NW 21:16:35 20° NW 21:16:35 20° NW
USA 234 3.8 21:27:14 50° NNW 21:27:39 51° NNW 21:33:55 10° W
Cosmos 2369 Rocket 4.5 21:31:12 10° N 21:32:29 15° N 21:32:29 15° N
